| time (UTC) | temp F | wind direction | speed knots | gust knots | rain 1hr in | rain 24hr in | rain mn in | humidity % | barometer mb |
| 20260906003008 | 63 | 141 | 0.0 | 0.0 | 0.00 | 0.00 | 0.00 | 82 | 1015.9 |
| 20260906001508 | 64 | 140 | 0.0 | 0.0 | 0.00 | 0.00 | 0.00 | 80 | 1015.8 |
| 20260906000037 | 65 | 142 | 0.0 | 0.0 | 0.00 | 0.00 | 0.00 | 78 | 1016.0 |
| 20260905234536 | 66 | 143 | 0.9 | 0.0 | 0.00 | 0.00 | 0.00 | 77 | 1016.0 |
| 20260905233043 | 67 | 141 | 0.0 | 0.0 | 0.00 | 0.00 | 0.00 | 75 | 1016.1 |
| 20260905231537 | 68 | 144 | 0.9 | 0.0 | 0.00 | 0.00 | 0.00 | 75 | 1016.0 |
| 20260905230034 | 69 | 146 | 0.9 | 0.0 | 0.00 | 0.00 | 0.00 | 73 | 1016.4 |
| 20260905224533 | 69 | 146 | 0.9 | 0.0 | 0.00 | 0.00 | 0.00 | 69 | 1016.3 |
| 20260905223031 | 70 | 63 | 1.7 | 0.0 | 0.00 | 0.00 | 0.00 | 68 | 1016.4 |
| 20260905221530 | 70 | 58 | 1.7 | 0.0 | 0.00 | 0.00 | 0.00 | 67 | 1016.4 |
| 20260905220031 | 71 | 146 | 2.6 | 0.0 | 0.00 | 0.00 | 0.00 | 68 | 1016.5 |
| 20260905214529 | 71 | 145 | 2.6 | 0.0 | 0.00 | 0.00 | 0.00 | 68 | 1016.5 |
| 20260905213059 | 71 | 145 | 0.9 | 0.0 | 0.00 | 0.00 | 0.00 | 68 | 1016.7 |
| 20260905211559 | 71 | 145 | 3.5 | 0.0 | 0.00 | 0.00 | 0.00 | 68 | 1016.5 |
| 20260905210106 | 71 | 142 | 2.6 | 0.0 | 0.00 | 0.00 | 0.00 | 67 | 1016.6 |
| 20260905204556 | 71 | 108 | 2.6 | 0.0 | 0.00 | 0.00 | 0.00 | 67 | 1016.6 |
| 20260905203058 | 72 | 104 | 1.7 | 0.0 | 0.00 | 0.00 | 0.00 | 67 | 1016.6 |
| 20260905201554 | 72 | 98 | 0.9 | 0.0 | 0.00 | 0.00 | 0.00 | 66 | 1016.8 |
| 20260905200100 | 71 | 92 | 0.9 | 0.0 | 0.00 | 0.00 | 0.00 | 67 | 1017.0 |
| 20260905194549 | 71 | 88 | 1.7 | 0.0 | 0.00 | 0.00 | 0.00 | 68 | 1017.1 |
| 20260905193048 | 71 | 101 | 1.7 | 0.0 | 0.00 | 0.00 | 0.00 | 69 | 1017.5 |
| 20260905191549 | 71 | 133 | 1.7 | 0.0 | 0.00 | 0.00 | 0.00 | 68 | 1017.6 |
| 20260905190051 | 71 | 104 | 0.9 | 0.0 | 0.00 | 0.00 | 0.00 | 70 | 1017.3 |
| 20260905184543 | 71 | 135 | 2.6 | 0.0 | 0.00 | 0.00 | 0.00 | 71 | 1017.5 |
| 20260905183042 | 70 | 29 | 2.6 | 0.0 | 0.00 | 0.00 | 0.00 | 71 | 1017.4 |
| 20260905181542 | 70 | 110 | 2.6 | 0.0 | 0.00 | 0.00 | 0.00 | 72 | 1017.4 |
| 20260905180011 | 70 | 148 | 2.6 | 0.0 | 0.00 | 0.00 | 0.00 | 72 | 1017.3 |
| 20260905174510 | 70 | 133 | 2.6 | 0.0 | 0.00 | 0.00 | 0.00 | 71 | 1017.6 |
| 20260905173007 | 70 | 127 | 2.6 | 0.0 | 0.00 | 0.00 | 0.00 | 72 | 1017.5 |
| 20260905171606 | 70 | 145 | 2.6 | 0.0 | 0.00 | 0.00 | 0.00 | 71 | 1017.8 |
| 20260905170009 | 69 | 148 | 1.7 | 0.0 | 0.00 | 0.00 | 0.00 | 71 | 1017.7 |
| 20260905164504 | 69 | 83 | 1.7 | 0.0 | 0.00 | 0.00 | 0.00 | 72 | 1017.7 |
| 20260905163100 | 68 | 123 | 1.7 | 0.0 | 0.00 | 0.00 | 0.00 | 74 | 1017.6 |
| 20260905161601 | 69 | 135 | 2.6 | 0.0 | 0.00 | 0.00 | 0.00 | 71 | 1017.5 |
| 20260905154603 | 68 | 87 | 1.7 | 0.0 | 0.00 | 0.00 | 0.00 | 72 | 1017.9 |
| 20260905153052 | 68 | 42 | 1.7 | 0.0 | 0.00 | 0.00 | 0.00 | 72 | 1017.9 |
| 20260905151550 | 67 | 93 | 1.7 | 0.0 | 0.00 | 0.00 | 0.00 | 73 | 1017.8 |
| 20260905150048 | 67 | 150 | 1.7 | 0.0 | 0.00 | 0.00 | 0.00 | 73 | 1017.6 |
| 20260905144546 | 66 | 81 | 1.7 | 0.0 | 0.00 | 0.00 | 0.00 | 75 | 1017.6 |
| 20260905143041 | 65 | 33 | 0.9 | 0.0 | 0.00 | 0.00 | 0.00 | 76 | 1017.7 |
| 20260905141538 | 65 | 87 | 0.9 | 0.0 | 0.00 | 0.00 | 0.00 | 78 | 1017.7 |
| 20260905140033 | 64 | 76 | 0.9 | 0.0 | 0.00 | 0.00 | 0.00 | 79 | 1017.5 |
| 20260905134530 | 62 | 29 | 0.9 | 0.0 | 0.00 | 0.00 | 0.00 | 83 | 1017.5 |
| 20260905133027 | 60 | 14 | 0.9 | 0.0 | 0.00 | 0.00 | 0.00 | 87 | 1017.4 |
| 20260905131521 | 59 | 14 | 0.0 | 0.0 | 0.00 | 0.00 | 0.00 | 90 | 1017.4 |
| 20260905130016 | 57 | 14 | 0.9 | 0.0 | 0.00 | 0.00 | 0.00 | 92 | 1017.1 |
| 20260905124513 | 56 | 9 | 0.0 | 0.0 | 0.00 | 0.00 | 0.00 | 92 | 1016.9 |
| 20260905123012 | 56 | 9 | 0.9 | 0.0 | 0.00 | 0.00 | 0.00 | 93 | 1016.7 |
| 20260905121508 | 55 | 9 | 0.0 | 0.0 | 0.00 | 0.00 | 0.00 | 94 | 1016.5 |
| 20260905120021 | 55 | 9 | 0.9 | 0.0 | 0.00 | 0.00 | 0.00 | 94 | 1016.1 |
| 20260905114507 | 55 | 9 | 0.9 | 0.0 | 0.00 | 0.00 | 0.00 | 94 | 1016.0 |
| 20260905113006 | 54 | 9 | 0.9 | 0.0 | 0.00 | 0.00 | 0.00 | 94 | 1016.0 |
| 20260905111503 | 54 | 9 | 0.0 | 0.0 | 0.00 | 0.00 | 0.00 | 94 | 1015.9 |
| 20260905110011 | 54 | 9 | 0.0 | 0.0 | 0.00 | 0.00 | 0.00 | 94 | 1015.8 |
| 20260905104507 | 54 | 9 | 0.0 | 0.0 | 0.00 | 0.00 | 0.00 | 94 | 1015.9 |
| 20260905103005 | 54 | 9 | 0.9 | 0.0 | 0.00 | 0.00 | 0.00 | 94 | 1015.8 |
| 20260905101558 | 55 | 9 | 0.0 | 0.0 | 0.00 | 0.00 | 0.00 | 95 | 1015.9 |
| 20260905094558 | 55 | 9 | 0.9 | 0.0 | 0.00 | 0.00 | 0.00 | 95 | 1016.1 |
| 20260905093115 | 55 | 9 | 0.9 | 0.0 | 0.00 | 0.00 | 0.00 | 94 | 1016.1 |
| 20260905091554 | 55 | 9 | 0.9 | 0.0 | 0.00 | 0.00 | 0.00 | 94 | 1016.3 |
| 20260905090052 | 56 | 9 | 0.0 | 0.0 | 0.00 | 0.00 | 0.00 | 95 | 1016.2 |
| 20260905084551 | 56 | 9 | 0.0 | 0.0 | 0.00 | 0.00 | 0.00 | 95 | 1016.1 |
| 20260905083048 | 56 | 9 | 0.0 | 0.0 | 0.00 | 0.00 | 0.00 | 95 | 1016.1 |
| 20260905081519 | 56 | 9 | 0.0 | 0.0 | 0.00 | 0.00 | 0.00 | 95 | 1016.0 |
| 20260905080027 | 56 | 9 | 0.9 | 0.0 | 0.00 | 0.00 | 0.00 | 95 | 1016.0 |
| 20260905074515 | 56 | 9 | 0.9 | 0.0 | 0.00 | 0.00 | 0.00 | 95 | 1016.0 |
| 20260905073013 | 56 | 9 | 0.9 | 0.0 | 0.00 | 0.00 | 0.00 | 95 | 1015.8 |
| 20260905071512 | 56 | 9 | 0.0 | 0.0 | 0.00 | 0.00 | 0.00 | 96 | 1015.7 |
| 20260905070023 | 56 | 9 | 0.0 | 0.0 | 0.00 | 0.00 | 0.00 | 95 | 1015.5 |
| 20260905064528 | 56 | 9 | 0.0 | 0.0 | 0.00 | 0.00 | 0.00 | 95 | 1015.6 |
| 20260905063013 | 56 | 9 | 0.0 | 0.0 | 0.00 | 0.00 | 0.00 | 94 | 1015.6 |
| 20260905061506 | 56 | 9 | 0.9 | 0.0 | 0.00 | 0.00 | 0.00 | 94 | 1015.6 |
| 20260905060004 | 57 | 9 | 0.0 | 0.0 | 0.00 | 0.00 | 0.00 | 94 | 1015.5 |
| 20260905054601 | 57 | 9 | 0.0 | 0.0 | 0.00 | 0.00 | 0.20 | 94 | 1015.5 |
| 20260905054504 | 57 | 9 | 0.0 | 0.0 | 0.00 | 0.00 | 0.20 | 94 | 1015.5 |
| 20260905053101 | 57 | 9 | 0.9 | 0.0 | 0.00 | 0.00 | 0.20 | 94 | 1015.6 |
| 20260905051559 | 57 | 9 | 0.9 | 0.0 | 0.00 | 0.00 | 0.20 | 93 | 1015.6 |
| 20260905050100 | 57 | 9 | 0.0 | 0.0 | 0.00 | 0.00 | 0.20 | 93 | 1015.7 |
| 20260905044557 | 58 | 9 | 0.0 | 0.0 | 0.00 | 0.00 | 0.20 | 93 | 1015.7 |
| 20260905043101 | 58 | 9 | 0.0 | 0.0 | 0.00 | 0.00 | 0.20 | 92 | 1015.5 |
| 20260905041600 | 59 | 9 | 0.0 | 0.0 | 0.00 | 0.00 | 0.20 | 92 | 1015.3 |
| 20260905040056 | 60 | 9 | 0.0 | 0.0 | 0.00 | 0.00 | 0.20 | 91 | 1015.5 |
| 20260905034556 | 60 | 9 | 0.9 | 0.0 | 0.00 | 0.00 | 0.20 | 91 | 1015.5 |
| 20260905033053 | 60 | 5 | 0.0 | 0.0 | 0.00 | 0.00 | 0.20 | 92 | 1015.6 |
| 20260905031555 | 60 | 5 | 0.0 | 0.0 | 0.00 | 0.00 | 0.20 | 91 | 1015.7 |
| 20260905030107 | 61 | 5 | 0.9 | 0.0 | 0.00 | 0.00 | 0.20 | 91 | 1015.5 |
| 20260905024523 | 61 | 4 | 0.0 | 0.0 | 0.00 | 0.00 | 0.20 | 91 | 1015.7 |
| 20260905023021 | 61 | 4 | 0.0 | 0.0 | 0.00 | 0.00 | 0.20 | 91 | 1015.8 |
| 20260905021533 | 61 | 4 | 0.9 | 0.0 | 0.00 | 0.00 | 0.20 | 91 | 1015.6 |
| 20260905020021 | 61 | 4 | 0.9 | 0.0 | 0.00 | 0.00 | 0.20 | 91 | 1015.5 |
| 20260905014514 | 62 | 14 | 0.9 | 0.0 | 0.00 | 0.00 | 0.20 | 91 | 1015.3 |
| 20260905013014 | 62 | 9 | 0.9 | 0.0 | 0.00 | 0.00 | 0.20 | 91 | 1015.1 |
| 20260905011510 | 62 | 9 | 0.9 | 0.0 | 0.00 | 0.00 | 0.20 | 91 | 1015.0 |
| 20260905010007 | 62 | 9 | 0.9 | 0.0 | 0.00 | 0.00 | 0.20 | 91 | 1014.5 |
| 20260905004506 | 62 | 344 | 1.7 | 0.0 | 0.00 | 0.00 | 0.20 | 91 | 1014.4 |